Location: Arrodets-la-Barthe
(43.0306°N, 0.2829°E)
Time: 00:13:49
(UTC+00:00)

Cosmos 2344 - Pass Details

Date: 30 May 2022
Orbit: 1228 x 3015 km, 63.3° (Epoch: 04 July)

Event Time Altitude Azimuth Distance (km) Brightness Sun altitude
Rises 22:00:36 0° 259° (W) 4,209 6.5 -19.8°
Reaches altitude 10° 22:03:48 10° 271° (W) 3,194 6.0 -20.1°
Maximum altitude 22:10:04 29° 330° (NNW) 2,133 5.5 -20.6°
Drops below altitude 10° 22:16:51 10° 29° (NNE) 3,469 6.3 -21.2°
Sets 22:20:33 0° 41° (NE) 4,638 6.9 -21.4°
